Temp
94 88 85 87 88 86 86 84 82 83 84 84 86 85 90 90 92 92 92 92 92 93 97 97 97 97 97 95 92 90 89 89 89 90 88 90 91 93 95 97 95 93 94 93
89 83 91 90 88 87 86 83 84 87 86 84 83 87 93 93 91 94 93 92 93 95 96 96 95 96 96 94 92 89 88 88 88 90 90 92 88 95 96 97 94 94 92 93
85 87 90 85 86 84 86 84 84 82 87 91 88 84 88 94 94 94 96 96 96 95 95 95 94 94 96 94 91 90 88 88 88 90 91 91 86 87 91 94 94 92 92 92
88 89 84 83 83 86 81 88 84 83 82 75 89 73 85 87 90 92 95 97 97 97 97 97 96 95 96 96 95 92 89 88 89 89 90 87 88 88 89 93 95 94 92 92
81 82 82 81 83 84 82 87 83 84 82 82 83 79 84 91 89 90 94 97 99 99 99 98 98 97 97 98 97 94 90 88 89 88 88 89 87 92 94 95 92 91 90 91
85 88 86 85 85 85 87 84 85 85 83 73 81 81 83 86 89 92 94 94 97 100 101 100 101 100 98 99 99 96 90 87 88 88 87 88 87 88 92 92 93 92 94 92
80 82 86 86 81 87 84 82 72 71 72 72 87 82 84 89 92 92 92 94 97 99 101 101 99 99 98 98 98 97 92 87 88 88 88 87 87 87 88 90 92 91 93 94
74 71 81 84 81 78 79 80 72 62 70 76 83 75 85 90 93 94 94 95 95 97 99 99 101 102 100 99 98 97 95 88 89 88 88 88 88 90 90 91 94 94 96 96
76 74 82 82 83 83 79 74 85 75 79 73 80 83 88 91 89 90 92 92 91 93 95 96 99 100 99 101 99 98 96 92 90 90 89 88 87 87 90 90 90 95 93 98
78 69 81 82 83 84 80 84 74 76 62 62 75 76 79 83 84 86 87 89 90 93 93 94 96 97 98 99 104 101 100 96 93 92 91 90 89 88 89 91 91 90 94 93
82 77 75 78 77 77 78 75 77 79 76 67 67 77 87 83 85 84 86 89 89 90 92 92 94 96 96 98 100 104 101 98 95 92 92 90 90 89 89 90 91 92 92 93
80 77 71 75 83 81 80 76 79 71 68 75 73 74 91 87 88 87 87 87 89 90 91 91 92 92 91 91 95 104 102 99 97 93 91 91 91 91 90 89 91 92 91 92
78 73 67 70 78 79 73 78 79 79 78 68 67 73 90 88 87 88 86 87 87 87 88 88 88 88 87 87 87 91 101 100 98 93 93 92 92 92 91 91 90 91 91 91
73 74 68 65 69 75 70 74 77 75 68 70 72 75 82 85 84 85 85 85 85 84 85 86 85 85 85 85 83 85 93 100 96 95 94 89 93 93 94 92 91 90 90 90
75 66 70 72 73 74 72 72 74 71 72 67 71 72 77 80 81 83 85 83 82 81 82 84 83 82 84 83 81 82 86 94 93 88 93 92 92 92 93 92 91 91 90 91
78 65 67 65 71 71 68 72 72 72 72 72 72 70 82 84 86 82 81 80 79 80 81 82 79 79 80 81 81 77 80 85 83 83 85 89 90 90 89 90 90 89 89 88
71 68 64 59 69 68 61 69 71 72 75 74 67 75 80 76 74 75 76 77 78 80 81 78 78 77 78 80 80 76 75 78 81 76 84 84 87 88 86 87 88 86 88 88
68 65 65 60 64 51 69 76 75 71 73 76 74 75 75 73 75 77 77 76 77 79 78 77 78 77 77 79 79 80 73 75 77 82 78 76 81 85 85 85 85 85 86 87
75 68 63 58 59 65 69 70 67 64 63 72 70 72 73 73 74 72 79 78 73 75 77 79 79 78 77 77 77 77 77 75 77 81 75 72 72 78 82 80 82 82 83 83
73 69 62 61 53 50 66 71 74 71 58 69 69 68 69 70 61 68 77 76 76 77 78 78 79 78 76 77 77 74 76 74 76 78 79 79 74 74 75 74 80 77 79 77
63 62 59 60 58 63 69 71 73 54 58 69 70 69 68 64 67 71 74 75 77 76 77 78 77 76 73 77 77 74 76 76 78 76 80 81 80 79 78 76 76 76 76 79
60 59 61 62 57 51 70 70 60 66 70 70 69 68 66 67 68 70 72 72 75 75 74 74 74 73 73 74 72 70 72 75 73 75 79 79 79 79 76 73 76 76 76 76
58 65 60 60 61 70 74 71 74 70 66 67 66 65 66 65 66 68 66 68 72 70 67 71 71 69 70 68 67 60 67 70 69 73 74 70 70 69 75 77 76 75 76 75
68 72 64 63 68 70 72 74 72 66 66 66 64 62 64 61 65 65 65 66 63 65 64 66 65 61 60 64 65 58 63 65 67 65 67 68 69 67 67 68 69 67 68 68
70 70 64 64 67 70 73 72 69 66 63 61 58 60 59 56 60 62 55 53 54 56 56 58 56 51 53 59 60 57 59 60 65 66 66 65 67 69 67 63 64 66 59 57
74 68 65 62 69 68 69 71 67 62 57 55 55 55 54 52 48 49 47 49 48 48 50 55 51 49 50 54 59 56 58 56 64 67 68 68 72 71 74 71 67 51 50 47
MSLP
1003.62 1002.93 1001.90 1001.91 1002.61 1003.04 1002.69 1002.47 1002.33 1003.78 1004.69 1004.26 1003.20 1003.16 1002.81 1003.94 1004.17 1004.32 1004.99 1005.96 1006.63 1007.17 1007.80 1008.77 1009.61 1010.39 1010.97 1011.83 1012.74 1013.57 1014.16 1014.74 1015.39 1015.62 1015.93 1015.78 1015.73 1015.86 1015.91 1015.92 1016.37 1017.01 1017.32 1017.76
1003.33 1002.83 1002.09 1003.01 1003.62 1003.35 1002.84 1002.42 1002.08 1002.57 1003.85 1003.96 1003.28 1001.92 1001.54 1002.34 1003.21 1003.29 1004.05 1004.82 1005.69 1006.36 1007.02 1007.97 1009.03 1009.81 1010.56 1011.43 1012.38 1013.27 1013.88 1014.55 1015.13 1015.30 1015.37 1015.23 1015.71 1015.22 1015.23 1015.55 1016.29 1016.91 1017.30 1017.38
1002.98 1003.08 1003.45 1003.98 1003.73 1003.38 1002.73 1002.32 1002.20 1002.55 1002.69 1002.51 1001.97 1001.10 1000.79 1001.24 1002.18 1002.86 1003.36 1004.04 1004.74 1005.37 1006.26 1007.35 1008.36 1009.23 1010.01 1010.82 1011.87 1012.71 1013.51 1014.12 1014.69 1014.66 1015.03 1015.25 1015.70 1015.61 1015.37 1015.26 1015.95 1016.63 1017.00 1017.24
1003.21 1004.07 1004.27 1004.39 1003.97 1003.68 1002.82 1003.07 1003.37 1003.25 1002.76 1001.49 1001.21 1000.22 1000.06 1000.62 1001.07 1001.89 1002.55 1003.05 1003.89 1004.69 1005.55 1006.37 1007.53 1008.56 1009.27 1010.04 1011.08 1011.99 1013.01 1013.61 1014.19 1014.49 1014.29 1014.68 1014.89 1014.80 1015.24 1015.09 1015.21 1015.81 1016.66 1016.94
1003.89 1004.50 1004.59 1004.48 1004.01 1004.75 1003.78 1004.09 1003.94 1003.39 1002.60 1001.69 1000.74 1000.22 999.20 999.82 999.82 1000.35 1000.83 1001.66 1002.65 1003.56 1004.64 1005.39 1006.31 1007.42 1008.41 1009.17 1009.99 1011.03 1012.20 1013.02 1013.46 1014.01 1013.98 1014.29 1014.49 1014.24 1014.26 1014.38 1014.69 1015.59 1016.10 1016.53
1004.53 1005.66 1005.47 1005.04 1005.30 1005.39 1005.04 1004.48 1003.52 1002.79 1002.10 1000.70 1000.13 999.79 998.58 998.56 999.15 1000.03 1000.96 1001.74 1002.00 1002.82 1003.71 1004.57 1005.39 1006.36 1007.41 1008.29 1008.99 1009.88 1011.14 1012.20 1012.88 1013.39 1013.97 1013.87 1014.00 1013.84 1013.59 1013.97 1014.12 1014.90 1015.24 1015.96
1005.37 1005.34 1005.90 1006.24 1005.36 1005.01 1004.96 1003.52 1002.12 1000.98 1000.39 999.44 998.81 998.99 999.00 999.80 1000.33 1001.59 1002.08 1002.77 1003.39 1003.41 1003.17 1003.68 1004.59 1005.42 1006.32 1007.29 1008.09 1008.84 1009.94 1011.24 1012.11 1012.55 1012.98 1013.58 1013.73 1013.91 1013.63 1013.63 1013.97 1013.96 1014.38 1014.64
1004.62 1004.90 1005.74 1006.38 1006.02 1005.44 1005.11 1004.41 1002.78 1001.03 999.61 998.82 999.39 999.27 999.20 1000.58 1001.93 1002.73 1003.29 1004.06 1004.74 1004.69 1004.49 1004.30 1003.89 1004.22 1005.36 1006.20 1007.13 1007.91 1008.63 1009.90 1011.15 1011.82 1012.26 1012.74 1013.18 1013.30 1013.52 1013.35 1013.14 1013.56 1013.43 1013.73
1005.13 1005.26 1006.54 1006.93 1006.98 1006.68 1005.33 1004.71 1003.64 1003.05 1001.73 1000.70 999.56 999.66 1000.70 1001.47 1002.59 1003.45 1004.00 1004.89 1005.61 1005.85 1005.73 1005.57 1005.24 1005.02 1005.04 1004.96 1005.75 1006.81 1007.67 1008.70 1009.66 1010.59 1011.25 1011.84 1012.38 1012.67 1012.46 1012.71 1013.19 1013.12 1013.30 1012.97
1006.85 1006.52 1006.29 1006.77 1007.42 1006.92 1006.58 1005.95 1004.53 1003.43 1002.08 1000.77 999.75 999.44 999.49 1000.89 1002.63 1004.05 1004.76 1005.36 1006.08 1006.26 1006.37 1006.41 1006.16 1005.98 1006.12 1005.37 1004.28 1005.16 1006.31 1007.26 1008.58 1009.59 1010.15 1010.82 1011.39 1011.95 1012.24 1012.29 1012.40 1012.71 1012.68 1013.07
1007.77 1007.47 1006.68 1007.45 1006.47 1005.84 1006.11 1005.98 1005.64 1004.70 1003.34 1001.80 1000.76 1000.04 1000.68 1002.01 1003.61 1004.68 1005.45 1006.05 1006.65 1006.89 1006.94 1006.95 1006.94 1006.67 1006.44 1005.67 1004.48 1003.23 1004.78 1006.04 1007.15 1008.43 1009.11 1009.86 1010.46 1010.98 1011.56 1011.77 1011.96 1012.14 1012.49 1012.54
1008.99 1008.08 1006.68 1006.07 1006.30 1007.36 1007.22 1006.56 1005.74 1004.45 1003.95 1003.17 1002.42 1001.26 1001.70 1003.28 1004.14 1004.95 1005.85 1006.87 1007.39 1007.51 1007.52 1007.43 1007.21 1007.22 1007.04 1006.18 1004.68 1002.60 1003.61 1004.86 1005.90 1007.18 1008.39 1008.84 1009.61 1010.21 1010.44 1010.91 1011.22 1011.58 1011.89 1012.25
1010.23 1008.85 1007.43 1006.49 1006.48 1007.24 1007.41 1006.79 1006.52 1005.87 1005.12 1004.13 1003.38 1002.11 1002.56 1003.68 1004.63 1005.11 1006.29 1007.16 1007.60 1007.76 1007.77 1007.87 1007.76 1007.71 1007.59 1007.29 1006.41 1005.07 1003.53 1004.19 1005.07 1006.21 1007.27 1008.07 1008.43 1008.94 1009.43 1009.76 1010.40 1010.75 1011.11 1011.46
1012.21 1010.22 1009.18 1007.93 1006.93 1007.42 1007.38 1007.22 1006.99 1006.87 1005.86 1004.77 1003.93 1003.54 1003.35 1003.76 1004.55 1005.52 1006.61 1007.51 1008.07 1008.21 1008.19 1008.10 1008.34 1008.28 1008.27 1008.11 1007.83 1006.80 1005.05 1004.16 1004.52 1005.27 1006.28 1007.10 1007.45 1007.70 1008.16 1008.88 1009.46 1010.03 1010.34 1010.72
1011.98 1010.68 1010.04 1009.37 1008.95 1008.53 1008.12 1007.81 1007.53 1007.18 1006.96 1006.46 1005.58 1005.22 1005.27 1005.57 1005.94 1006.51 1007.17 1007.91 1008.42 1008.62 1008.76 1008.62 1008.69 1008.86 1008.69 1008.47 1008.59 1007.95 1006.53 1005.12 1004.70 1004.83 1005.21 1005.96 1006.69 1007.20 1007.52 1007.81 1008.33 1008.85 1009.51 1009.85
1011.56 1011.20 1011.16 1010.28 1009.84 1009.22 1008.59 1008.37 1008.18 1007.91 1007.78 1007.45 1007.02 1006.62 1006.95 1006.94 1006.87 1007.27 1007.99 1008.58 1008.78 1008.80 1008.99 1008.97 1009.60 1009.67 1009.28 1008.70 1008.59 1008.87 1007.88 1006.43 1005.84 1005.27 1005.00 1005.26 1006.01 1006.67 1007.07 1007.30 1007.52 1008.10 1008.54 1009.03
1011.62 1011.48 1011.31 1010.22 1009.80 1009.19 1008.96 1008.34 1008.15 1007.93 1008.09 1007.91 1007.24 1007.19 1007.43 1008.17 1008.85 1009.40 1009.63 1009.61 1009.34 1008.86 1009.04 1009.44 1009.77 1009.94 1009.72 1009.06 1008.65 1008.64 1008.52 1007.72 1006.34 1005.96 1005.62 1005.38 1005.40 1006.15 1006.94 1007.19 1007.23 1007.62 1007.79 1008.22
1011.91 1012.32 1012.06 1010.95 1010.53 1009.29 1008.49 1009.04 1009.28 1009.28 1009.19 1009.11 1008.83 1008.83 1009.20 1010.04 1010.49 1010.60 1010.91 1010.25 1009.68 1009.21 1009.43 1009.95 1009.84 1009.81 1009.70 1009.39 1009.10 1008.51 1008.60 1007.83 1007.05 1005.97 1006.04 1006.04 1005.72 1006.18 1006.92 1007.21 1007.09 1007.21 1007.26 1007.30
1012.20 1012.39 1011.57 1011.10 1010.12 1009.37 1009.25 1009.63 1010.66 1011.00 1010.87 1011.05 1010.64 1010.47 1010.74 1011.16 1011.24 1011.03 1010.31 1010.24 1010.55 1010.54 1010.33 1009.81 1009.67 1009.52 1009.34 1009.13 1008.97 1008.56 1007.99 1007.72 1006.86 1005.90 1006.13 1006.32 1006.00 1005.66 1006.83 1006.83 1007.00 1007.01 1006.97 1006.89
1012.46 1013.15 1012.99 1011.65 1011.00 1010.33 1010.10 1010.94 1011.76 1012.30 1011.52 1012.15 1012.31 1012.25 1012.06 1012.01 1011.18 1010.38 1010.26 1010.50 1010.45 1010.42 1010.14 1009.62 1009.36 1009.29 1008.98 1008.66 1008.32 1008.22 1007.44 1007.23 1006.22 1005.72 1005.32 1005.38 1005.81 1005.70 1006.91 1006.36 1006.44 1006.88 1007.22 1007.46
1012.14 1012.64 1012.04 1011.30 1010.93 1010.78 1011.44 1012.17 1012.48 1012.66 1012.46 1012.83 1013.12 1012.95 1012.69 1012.50 1012.23 1011.26 1011.12 1010.65 1010.51 1010.32 1009.90 1009.31 1009.34 1008.97 1009.21 1008.30 1007.64 1007.41 1006.81 1006.20 1005.82 1005.35 1005.02 1005.22 1005.47 1005.89 1006.13 1006.06 1006.39 1006.52 1006.93 1007.22
1012.40 1012.00 1011.27 1010.96 1010.83 1011.48 1012.78 1012.79 1013.03 1013.14 1013.19 1013.60 1013.82 1013.84 1013.38 1013.05 1012.24 1011.57 1011.15 1010.51 1009.95 1009.69 1009.92 1009.96 1009.42 1009.22 1009.16 1008.66 1008.06 1007.43 1006.68 1006.16 1005.78 1005.12 1004.75 1004.72 1004.98 1005.38 1005.65 1005.87 1005.71 1006.18 1006.83 1006.46
1012.70 1012.55 1012.61 1013.01 1012.07 1012.49 1012.74 1012.89 1013.31 1014.22 1014.75 1014.68 1014.75 1014.77 1014.12 1013.41 1012.69 1012.00 1011.51 1010.89 1009.99 1010.43 1010.76 1010.29 1010.10 1009.82 1009.36 1009.13 1008.90 1008.29 1007.13 1006.39 1005.77 1005.22 1004.98 1005.36 1005.38 1005.43 1005.38 1005.55 1005.75 1006.32 1006.67 1007.05
1012.34 1012.68 1012.96 1013.13 1012.64 1012.54 1012.69 1013.07 1014.15 1015.10 1015.64 1015.88 1015.84 1015.52 1014.71 1014.15 1013.42 1012.62 1012.04 1011.40 1011.42 1011.33 1011.46 1011.31 1011.19 1011.03 1010.27 1009.60 1009.05 1008.73 1007.58 1006.63 1006.09 1005.68 1005.33 1005.58 1005.64 1005.82 1005.92 1006.08 1006.55 1007.01 1007.52 1007.94
1012.26 1012.61 1012.94 1012.65 1012.56 1012.79 1012.70 1013.35 1014.58 1015.63 1016.52 1016.87 1016.94 1016.53 1016.05 1015.61 1014.45 1013.71 1013.91 1013.71 1013.39 1013.33 1013.22 1012.96 1012.76 1012.28 1011.60 1010.45 1009.44 1008.74 1007.63 1006.62 1006.21 1005.80 1005.86 1005.89 1005.76 1005.72 1006.24 1007.11 1007.78 1007.79 1008.57 1009.65
1011.70 1011.81 1012.15 1011.97 1012.35 1012.74 1013.01 1013.82 1015.24 1016.11 1017.08 1017.54 1017.75 1017.72 1017.66 1017.44 1016.63 1016.06 1015.94 1015.33 1015.23 1015.01 1014.37 1013.85 1013.38 1012.98 1012.62 1011.34 1009.79 1008.79 1007.77 1007.05 1006.28 1005.74 1005.53 1005.71 1005.58 1005.99 1006.26 1007.47 1008.51 1009.22 1009.54 1009.44
Wind_Speed
9 11 12 5 4 6 8 8 3 6 3 8 6 4 11 13 14 13 14 14 14 14 15 17 15 14 14 15 14 14 13 11 10 9 9 8 9 8 8 7 6 9 8 10
11 12 4 8 5 9 9 10 8 7 8 5 11 10 10 18 14 13 14 15 15 16 16 17 17 16 15 16 15 15 14 14 11 9 8 7 7 8 8 8 9 8 10 9
15 12 9 2 11 10 12 11 12 7 8 13 14 16 10 10 16 12 14 15 15 16 16 17 18 17 16 17 17 16 15 15 13 11 9 7 3 3 5 8 9 10 11 10
10 11 3 5 10 7 13 12 5 10 13 10 3 3 9 14 14 16 14 15 15 15 15 17 17 17 17 17 18 17 16 15 14 13 11 11 10 10 10 9 9 10 12 12
7 3 6 9 4 4 12 8 9 12 14 15 14 9 6 6 10 17 16 17 14 16 15 16 20 19 17 18 17 18 16 16 14 14 12 11 11 10 9 9 9 8 11 12
6 3 5 9 4 7 11 13 14 15 13 13 15 14 12 10 9 16 13 6 12 11 13 15 16 18 18 18 18 18 18 15 16 16 16 12 13 12 10 10 9 10 10 11
7 8 5 6 9 9 11 15 10 10 11 11 13 14 11 16 19 15 12 14 12 9 4 13 15 15 17 19 19 18 19 19 18 19 18 17 14 13 12 10 10 11 11 11
8 10 9 5 6 12 8 11 10 8 6 7 9 5 1 19 15 13 12 11 9 11 12 12 12 16 17 19 20 21 19 21 19 19 18 17 16 12 12 11 10 11 11 12
3 4 6 0 4 6 3 8 10 10 14 10 10 8 7 14 13 7 10 8 8 9 10 12 12 11 15 16 21 22 20 21 21 21 18 17 17 17 14 14 13 10 11 10
6 10 7 8 6 11 11 10 9 9 8 12 9 9 8 19 16 8 5 8 9 9 9 11 12 11 11 18 15 23 24 21 21 23 19 17 17 17 15 13 13 15 11 12
8 8 7 3 12 10 8 11 11 15 12 12 10 3 14 14 10 4 5 12 12 12 12 12 13 14 15 18 24 21 23 23 21 20 18 18 18 18 17 15 14 13 13 11
6 10 10 9 10 4 11 14 16 11 11 12 12 12 15 11 4 7 9 11 14 13 13 14 13 15 16 20 21 11 18 21 19 18 17 18 18 18 18 17 16 16 14 14
8 7 8 14 13 9 10 12 14 14 14 17 14 7 7 11 7 5 9 15 15 14 14 14 15 14 15 17 20 22 12 17 18 18 19 20 21 20 21 19 18 17 16 16
5 11 11 13 18 14 10 10 11 13 13 14 16 18 15 7 14 15 16 13 15 14 15 14 14 15 14 14 17 19 20 13 13 17 20 18 20 21 21 18 17 17 17 17
8 11 12 14 15 17 17 18 17 18 18 19 20 23 21 22 21 19 12 10 11 14 16 16 14 15 16 14 15 17 20 15 11 9 17 18 17 17 17 17 17 18 17 17
9 9 9 14 15 17 18 17 19 21 21 22 24 24 21 19 15 15 14 16 18 15 16 14 16 18 17 17 13 16 18 18 11 9 8 13 14 15 15 16 16 16 16 17
9 9 10 13 13 7 11 16 15 15 16 19 21 18 17 18 18 18 19 21 21 15 16 14 16 15 17 18 14 11 16 19 16 5 11 6 11 13 16 16 16 15 17 16
8 7 9 12 11 15 7 6 9 13 15 16 19 17 15 13 16 17 18 23 17 16 15 16 16 17 17 17 18 14 10 17 16 15 10 9 7 11 13 15 16 17 16 17
8 9 9 10 12 13 13 6 8 11 17 19 21 18 16 15 18 18 22 10 12 15 17 18 15 18 17 19 17 16 13 14 17 16 12 12 7 6 13 15 14 14 14 13
8 4 9 11 12 14 11 14 9 8 17 14 15 17 19 18 17 15 17 22 21 20 18 19 18 19 18 18 17 17 15 14 16 17 13 13 11 11 17 9 11 9 10 11
8 9 11 11 12 8 11 8 7 11 12 20 21 21 22 20 19 27 24 22 19 20 20 18 19 17 18 20 15 18 17 15 14 14 15 14 15 16 15 11 10 10 11 12
8 9 9 9 12 7 10 14 12 14 17 18 21 23 26 24 27 24 22 23 21 18 17 19 16 17 18 19 15 18 17 11 10 11 11 11 12 11 9 12 10 11 11 11
7 4 9 8 13 16 10 14 14 16 15 17 23 25 25 25 23 23 20 20 18 17 13 13 15 17 17 13 12 12 17 7 6 9 1 5 8 4 1 7 8 6 5 4
7 9 7 9 12 14 13 10 8 10 17 19 20 22 21 20 23 23 20 17 11 6 9 11 12 14 14 14 12 9 13 7 1 3 7 5 7 6 8 6 5 5 4 3
7 4 6 13 10 11 12 12 11 12 12 12 15 17 20 21 20 14 12 12 12 11 11 11 12 13 15 14 10 11 10 9 5 7 5 6 5 7 8 8 6 4 7 2
5 5 8 11 14 12 12 11 7 7 6 10 11 14 15 18 17 15 12 12 12 10 10 14 14 15 16 15 12 10 10 14 7 6 6 3 5 5 7 8 9 13 8 8
Wind_Direction
206 261 230 270 65 327 323 313 84 123 155 291 5 255 174 184 204 186 186 184 191 196 180 173 186 179 177 177 178 181 183 175 179 190 193 204 207 198 203 204 196 151 207 191
235 240 323 48 316 296 288 283 271 129 160 242 285 292 183 163 201 196 189 183 194 193 186 183 184 184 186 178 181 182 185 177 192 195 205 195 210 205 208 200 171 207 206 197
252 39 52 256 268 271 265 273 302 332 331 269 242 259 187 174 178 192 198 195 193 195 192 187 185 192 192 182 185 186 191 184 192 211 200 187 194 258 243 199 185 195 205 209
236 62 305 271 260 288 278 26 339 289 277 278 197 283 213 168 184 181 203 189 196 197 195 184 192 194 200 196 186 190 190 193 195 204 192 198 203 204 198 220 196 186 203 205
76 252 235 249 310 14 286 14 294 285 278 270 258 248 282 161 203 186 195 181 194 186 197 200 190 195 205 199 196 192 189 195 202 195 229 185 222 206 206 206 188 211 177 209
78 348 315 356 335 264 312 279 261 247 252 254 246 257 254 204 174 86 81 147 162 185 195 203 205 196 199 208 202 196 186 196 200 195 207 218 195 240 213 197 190 185 201 196
183 189 113 279 264 201 244 259 258 227 212 243 236 215 231 53 84 85 82 60 38 1 326 199 201 213 202 207 212 206 186 192 201 204 201 211 218 217 247 184 217 204 203 197
217 179 188 109 330 341 313 316 304 316 287 353 85 228 313 98 98 98 88 80 45 20 22 1 338 199 209 212 213 216 197 188 199 206 207 201 208 214 223 210 214 219 219 204
289 183 136 203 301 282 79 248 6 302 270 262 275 138 149 118 102 94 93 76 42 17 12 10 355 352 334 219 212 217 214 191 195 205 203 204 203 215 210 226 208 219 225 224
46 282 158 121 267 233 270 348 264 210 273 271 250 224 222 174 133 100 65 39 16 5 0 358 345 357 337 305 258 208 216 204 197 209 205 203 202 205 223 212 220 215 218 230
321 250 136 229 215 266 185 219 224 279 296 299 279 34 53 94 99 88 14 17 352 350 351 349 341 346 335 325 308 214 207 214 200 205 209 206 204 204 204 221 214 222 222 207
46 305 272 269 105 295 279 284 285 276 236 244 271 275 129 115 115 44 8 353 344 344 344 348 343 342 345 334 323 260 206 209 204 196 211 205 207 209 207 210 216 210 218 223
12 262 276 229 215 186 253 253 254 269 277 269 284 276 99 121 205 23 3 333 327 335 342 337 349 346 345 341 332 322 259 215 205 192 202 218 211 209 216 209 212 211 210 217
309 272 271 291 330 327 291 251 269 274 276 278 257 264 284 254 335 344 334 337 320 327 334 336 338 343 338 343 335 321 308 261 216 202 204 212 221 216 213 215 205 214 212 213
259 283 295 292 294 290 285 282 279 266 268 274 285 297 306 315 317 313 322 319 311 317 324 325 337 339 334 337 339 325 317 298 264 221 208 209 215 227 221 213 212 205 211 215
248 276 287 281 275 269 271 276 274 269 272 275 278 277 283 285 304 322 324 319 312 307 314 336 336 326 325 329 336 327 315 313 337 308 233 208 211 218 230 224 213 214 210 213
256 281 279 279 290 302 280 260 265 270 268 269 272 292 336 342 337 329 323 319 309 313 303 334 327 318 324 322 322 317 314 313 301 288 293 255 210 212 228 231 226 217 216 216
247 252 279 274 281 268 318 16 298 285 291 306 314 316 332 330 320 315 309 285 308 329 340 316 312 317 312 311 312 309 297 305 298 267 261 291 284 234 235 235 228 224 222 216
268 279 274 276 265 292 311 46 11 349 314 313 297 314 328 316 305 294 277 7 334 318 307 303 311 308 308 303 300 305 292 292 289 252 228 245 258 253 249 238 241 239 232 230
257 229 271 286 302 290 301 59 37 336 293 20 342 316 308 309 290 289 320 321 314 307 307 299 310 308 310 301 295 293 287 279 285 275 232 227 220 222 243 240 240 238 246 250
225 225 260 263 272 285 47 26 327 281 339 333 322 315 308 301 299 304 297 289 294 296 297 310 299 310 308 304 303 287 284 277 286 274 256 222 213 212 218 219 224 230 231 238
280 289 277 275 269 292 350 318 319 322 310 321 316 317 307 304 301 300 300 294 282 293 308 305 303 305 307 304 322 308 291 295 296 280 246 244 220 216 216 221 233 234 226 232
253 265 336 318 325 329 327 331 336 8 332 316 314 309 300 296 289 294 290 284 312 319 298 313 316 313 305 322 313 299 293 274 268 258 81 88 81 54 182 210 203 193 174 170
224 221 261 293 287 314 305 354 344 353 332 328 331 318 307 298 296 303 298 292 294 310 346 339 333 329 317 312 312 314 304 305 228 100 119 123 121 89 80 73 87 77 64 71
304 313 291 271 267 320 312 358 8 350 345 353 341 333 357 344 324 329 20 21 23 20 6 2 2 348 330 323 336 327 326 329 224 178 191 167 165 133 95 59 30 58 75 25
253 248 280 335 332 328 324 341 31 354 4 360 348 3 5 354 23 28 23 26 18 7 8 14 9 359 331 319 5 350 19 23 297 218 124 98 109 77 101 120 107 69 78 68